Location: Northern Prairie Star Party
(53.2167°N, 112.5333°W)
Time: 21:32:04
(UTC-07:00)

Daily predictions for brighter satellites

Satellite Brightness Start Highest point End
(mag) Time Altitude Azimuth Time Altitude Azimuth Time Altitude Azimuth
SKYMED 2 3.9 18:19:52 10° NNE 18:24:04 45° E 18:28:14 10° S
ALOS 3.0 18:20:24 10° ESE 18:24:29 31° ENE 18:28:36 10° N
Thor Agena Rocket 3.5 18:22:01 10° NNE 18:27:08 72° ESE 18:32:10 10° S
FENGYUN 3A 4.2 18:24:15 10° SE 18:29:11 38° ENE 18:34:10 10° N
H-2A R/B 4.1 18:26:38 10° ESE 18:29:21 19° ENE 18:32:05 10° NNE
Cosmos 1812 2.9 18:26:27 10° N 18:30:16 51° ENE 18:34:02 10° SSE
Cosmos 1238 Rocket 3.8 18:28:48 10° NNE 18:31:00 17° ENE 18:33:04 10° ESE
Cosmos 2237 Rocket 3.8 18:29:35 10° NNW 18:33:31 18° NNE 18:37:26 10° ENE
USA 116 4.4 18:31:20 10° N 18:35:09 63° WNW 18:39:26 10° SSW
Cosmos 1536 Rocket 4.0 18:37:12 10° N 18:41:28 43° ENE 18:45:44 10° SE
SL-08 R/B 4.4 18:38:16 10° S 18:44:22 72° E 18:50:34 10° NNE
Sich 1 Rocket 4.2 18:42:34 10° SSW 18:47:07 66° WNW 18:51:43 10° N
Nadezhda 1 Rocket 4.0 18:44:03 10° N 18:50:13 87° E 18:56:18 10° S
Tiangong 2 3.9 18:50:29 10° SSW 18:51:16 11° SSW 18:52:04 10° S
Cosmos 1825 4.5 18:48:09 10° SW 18:51:27 27° WNW 18:54:46 10° N
Cosmos 2360 Rocket 2.3 18:46:50 10° NNW 18:52:26 59° NE 18:58:02 10° SE
Cosmos 1980 Rocket 4.3 18:47:57 10° NW 18:52:55 32° WSW 18:57:52 10° SSW
Cosmos 2219 Rocket 3.3 18:50:59 10° NNW 18:55:43 27° NE 18:59:34 14° E
DNEPR-1 R/B 4.4 18:51:54 10° NW 18:56:11 52° SW 19:00:15 10° SSE
Spot 2 Rocket 3.7 18:52:07 10° SE 18:56:57 47° ENE 19:01:50 10° N
Resurs 01 Rocket 1.9 18:52:52 10° SE 18:57:04 44° ENE 19:01:16 10° N
METEOR-M 4.2 18:53:00 10° SSE 18:58:21 86° WSW 19:03:45 10° NNW
NOAA 12 4.2 18:53:04 10° SSE 18:58:25 84° WSW 19:03:48 10° NNW
Cosmos 2181 Rocket 4.1 18:55:23 10° N 19:01:28 54° ENE 19:07:36 10° SSE
SL-16 R/B 4.0 19:00:51 10° NNW 19:04:27 17° NNE 19:07:43 11° ENE
Cosmos 1782 Rocket 3.9 19:01:40 10° SSW 19:06:06 72° WNW 19:10:36 10° N
BREEZE-M DEB (TANK) 3.2 19:04:09 10° WSW 19:06:10 28° S 19:09:27 10° SE
HJ-1C 3.4 19:04:27 10° SSE 19:07:47 60° ENE 19:11:08 10° N
USA 229 DEB 4.0 19:02:04 10° NW 19:09:01 57° NNE 19:15:00 15° ESE
USA 229 4.0 19:02:10 10° NW 19:09:08 57° NNE 19:15:05 15° ESE
ATLAS CENTAUR R/B 2.5 19:04:58 10° WSW 19:09:15 42° NW 19:13:15 10° NE
COSMO-SKYMED 1 3.0 19:07:51 10° N 19:12:12 68° WNW 19:16:30 10° SSW
Envisat 4.0 19:10:22 16° ESE 19:13:20 26° ENE 19:17:32 10° N
SL-19 R/B 4.4 19:08:37 10° SSE 19:14:18 75° ENE 19:20:25 10° NNW
Cosmos 1633 3.4 19:11:47 10° SSE 19:15:02 30° E 19:18:18 10° NNE
SJ-6B 3.1 19:13:24 10° S 19:17:24 70° WSW 19:21:21 10° NNW
Cosmos 2333 Rocket 3.2 19:12:27 10° NNW 19:17:30 31° NE 19:20:34 19° E
NOSS 3-4 (A) 4.2 19:11:29 10° WSW 19:17:47 55° NNW 19:24:25 10° NE
NOSS 3-4 (C) 4.2 19:11:36 10° WSW 19:17:53 55° NNW 19:24:32 10° NE
USA 186 2.6 19:19:50 27° ENE 19:20:01 27° ENE 19:22:36 10° N
Cosmos 1300 Rocket 4.1 19:16:46 10° SSE 19:20:46 35° E 19:24:50 10° NNE
NOSS 3-1 (A) 4.5 19:14:36 10° NW 19:21:09 43° NNE 19:26:26 19° E
Okean 2 Rocket 3.5 19:17:36 10° SSW 19:22:03 67° WNW 19:26:29 10° N
Resurs 1-3 3.6 19:17:43 10° SSE 19:22:03 63° ENE 19:26:25 10° N
NOSS 2-2 (E) 3.7 19:19:27 10° SW 19:23:44 81° SE 19:28:38 12° NE
SL-16 R/B 3.4 19:19:33 10° NW 19:24:56 45° WSW 19:30:17 10° S
ATLAS 2AS CENTAUR R/B 4.0 19:18:44 10° WNW 19:26:19 40° N 19:32:43 14° ENE
Cosmos 2082 Rocket 3.6 19:21:32 10° WSW 19:26:48 37° NW 19:32:06 10° NNE
ERS-1 Rocket 4.1 19:25:39 21° E 19:26:59 24° NE 19:30:57 10° N
Meteor 1-19 Rocket 4.2 19:22:42 10° N 19:28:22 74° ENE 19:34:05 10° SSE
Cosmos 1939 Rocket 4.0 19:28:52 23° ENE 19:28:54 23° ENE 19:32:04 10° N
FengYun 1-2 T 4.2 19:23:48 10° SSE 19:29:18 85° WSW 19:34:52 10° NNW
Cosmos 1340 2.6 19:26:21 10° NNW 19:30:11 85° WSW 19:33:59 10° S
Cosmos 1709 Rocket 3.9 19:24:21 10° S 19:30:30 65° E 19:36:36 10° NNE
USA 215 3.5 19:26:24 17° ENE 19:31:34 68° N 19:38:03 10° W
NOSS 5 (C) 4.1 19:33:37 10° SW 19:36:50 89° NW 19:38:04 33° NE
Cosmos 2151 Rocket 3.6 19:35:56 10° SSW 19:40:27 85° W 19:45:02 10° N
Meteor 1-20 Rocket 4.4 19:34:55 10° SSW 19:40:46 80° WNW 19:46:40 10° NNE
Meteor 1-13 Rocket 4.2 19:36:11 10° NNW 19:41:44 82° W 19:47:19 10° S
NOSS 3-1 (C) 4.2 19:36:00 10° NW 19:42:50 52° NNE 19:47:16 25° E
Cosmos 1818 3.9 19:38:12 10° SSW 19:43:22 45° ESE 19:46:10 25° ENE
Cosmos 2322 Rocket 4.0 19:38:26 10° NW 19:43:23 33° WSW 19:48:18 10° SSW
NOSS 2-2 (D) 3.7 19:39:42 10° SW 19:43:58 84° NW 19:48:00 17° NE
Genesis I 3.1 19:40:59 10° NW 19:44:58 85° NE 19:46:33 35° SE
Cosmos 2285 Rocket 4.1 19:40:22 10° NNW 19:46:45 57° ENE 19:50:43 24° SE
Cosmos 1892 Rocket 4.3 19:44:53 10° N 19:48:39 32° ENE 19:48:39 32° ENE
Okean 1 Rocket 3.2 19:45:24 10° S 19:49:44 51° E 19:54:07 10° NNE
Cosmos 2292 Rocket 4.5 19:46:23 10° SSW 19:51:43 84° W 19:58:57 10° N
Helios 1A 2.8 19:48:26 14° SSE 19:52:00 81° ENE 19:56:12 10° NNW
CZ-2D R/B 3.2 19:48:20 10° SSE 19:52:09 85° WSW 19:56:01 10° NNW
CZ-4B DEB 3.2 19:53:49 45° NNE 19:53:49 45° NNE 19:56:17 10° N
Cosmos 405 Rocket 3.7 19:50:15 10° N 19:53:29 33° NE 19:53:29 33° NE
Cosmos 2322 4.1 19:49:05 10° NW 19:54:47 66° WSW 20:00:26 10° SSE
Meteor 1-23 Rocket 4.2 19:50:07 10° N 19:55:58 74° ENE 20:01:45 10° SSE
Okean 1-7 Rocket 3.5 19:53:50 10° N 19:58:26 84° E 20:02:20 14° SSE
Cosmos 1570 Rocket 3.9 19:53:12 10° NNW 19:58:29 90° W 20:02:11 20° SSE
SJ-11-01 4.4 19:58:38 38° ESE 20:00:04 53° ENE 20:04:43 10° N
NOSS 2-2 (C) 4.0 19:56:58 10° WSW 20:01:15 68° NW 20:04:43 21° NE
ALOS 3.5 19:57:22 10° S 20:01:49 43° W 20:06:19 10° NNW
Cosmos 407 Rocket 3.6 19:57:17 10° SSW 20:02:33 80° WNW 20:07:56 10° NNE
H-2A R/B 3.5 19:59:43 10° S 20:03:20 50° W 20:07:01 10° NNW
Cosmos 676 Rocket 3.8 19:58:19 10° SSW 20:03:30 80° ESE 20:08:46 10° NNE
Spot 1 4.1 20:02:43 14° S 20:06:12 70° WSW 20:10:22 10° NNW
Meteor 2-4 Rocket 3.7 20:00:36 10° NNW 20:06:17 82° W 20:11:46 10° S
COSMOS 2428 2.6 20:01:05 10° NNW 20:06:49 90° WSW 20:09:59 28° SSE
Cosmos 2237 4.3 20:01:43 10° NW 20:07:29 75° WSW 20:11:31 20° SSE
SPOT 5 4.1 20:10:55 26° NE 20:10:55 26° NE 20:14:23 10° N
Helios 1B rocket 4.1 20:06:17 10° NNE 20:15:09 - S 20:07:42 20° NNE
Cosmos 1238 Rocket 4.1 20:08:08 10° NNW 20:11:02 31° W 20:13:43 10° SSW
Cosmos 2333 4.1 20:05:35 10° NNW 20:11:20 87° ENE 20:14:05 33° SSE
Cosmos 1763 Rocket 4.2 20:07:31 10° NNW 20:12:08 34° NE 20:12:08 34° NE
Cosmos 1025 Rocket 3.0 20:11:49 10° NNW 20:16:12 85° WSW 20:17:56 36° S
Cosmos 2237 Rocket 2.4 20:13:26 10° NNW 20:19:00 50° NE 20:19:50 46° ENE
Cosmos 2208 Rocket 4.3 20:16:02 10° NNW 20:21:29 68° WSW 20:24:48 24° S
Meteor 1-11 Rocket 3.8 20:17:09 10° SSW 20:22:58 83° WNW 20:28:57 10° NNE
Okean 2 3.3 20:21:17 10° N 20:25:17 80° NNE 20:25:17 80° NNE
Cosmos 1140 Rocket 3.3 20:25:02 10° SSW 20:30:10 83° ESE 20:33:59 19° NNE
Cosmos 468 Rocket 3.8 20:25:52 10° NNW 20:31:05 72° ENE 20:31:31 68° E
Meteor 2-13 Rocket 4.4 20:32:31 55° ESE 20:32:45 56° E 20:38:41 10° NNE
Resurs 01 Rocket 3.7 20:29:58 10° SSW 20:33:43 27° W 20:37:30 10° NW
Intercosmos 24 4.4 20:32:24 32° S 20:34:38 84° E 20:41:07 10° NNE
GEOS 3 Rocket 3.6 20:33:43 40° NE 20:35:40 85° NW 20:40:57 10° SW
Cosmos 2360 Rocket 3.8 20:31:15 10° NW 20:36:11 32° WSW 20:41:07 10° SSW
Cosmos 2219 Rocket 2.1 20:34:45 10° NNW 20:40:24 87° WSW 20:41:20 64° SSE
Cosmos 614 Rocket 4.1 20:39:31 10° SSW 20:43:41 60° SSW 20:43:41 60° SSW
Cosmos 1814 Rocket 3.9 20:40:03 10° NNW 20:44:55 69° NNE 20:44:55 69° NNE
NOSS 0 Rocket 3.8 20:39:30 10° NW 20:45:43 89° ENE 20:46:47 63° SE
ARGOS 3.9 20:47:42 40° NNE 20:47:42 40° NNE 20:51:41 10° N
Cosmos 1610 Rocket 4.3 20:45:50 41° S 20:48:06 75° E 20:54:17 10° NNE
ATLAS CENTAUR R/B 3.5 20:46:09 10° WNW 20:49:13 19° NNW 20:50:02 18° N
SL-16 R/B 2.9 20:44:46 10° NNW 20:49:37 41° NNE 20:49:37 41° NNE
USA 186 4.3 20:51:14 21° WNW 20:51:14 21° WNW 20:53:04 10° NW
Envisat 3.4 20:50:33 43° SSW 20:52:02 61° WSW 20:57:06 10° NNW
H-2A R/B 3.4 20:58:07 28° NNE 20:58:07 28° NNE 21:01:14 10° N
USA 229 DEB 4.2 20:53:13 10° NW 21:00:08 57° SW 21:02:29 40° S
USA 229 4.2 20:53:19 10° NW 21:00:15 57° SW 21:02:34 41° S
Cosmos 2333 Rocket 2.2 20:56:36 10° NW 21:02:21 76° WSW 21:02:36 74° SW
Cosmos 1939 Rocket 4.4 21:04:47 35° NW 21:04:47 35° NW 21:07:28 10° NNW
ERS-1 Rocket 3.2 21:05:39 68° WNW 21:05:39 68° WNW 21:10:25 10° NNW
MetOp-B 4.5 21:12:42 58° N 21:12:42 58° N 21:17:00 10° NNW
NOSS 3-1 (A) 3.8 21:05:44 10° NW 21:13:01 84° NE 21:13:54 72° ESE
Cosmos 2184 Rocket 4.5 21:08:05 10° SSW 21:14:18 59° WNW 21:20:30 10° N
USA 215 3.2 21:13:45 66° NE 21:14:21 71° NNE 21:20:52 10° WNW
Cosmos 1980 3.9 21:11:02 10° NW 21:16:13 68° WNW 21:16:13 68° WNW
ATLAS 2AS CENTAUR R/B 3.4 21:11:06 10° NW 21:19:03 51° NNE 21:20:09 48° NE
Meteor 2-8 Rocket 4.5 21:16:27 10° NNW 21:21:53 72° NNW 21:21:53 72° NNW
Cosmos 1818 4.3 21:21:37 10° WSW 21:26:53 51° NW 21:26:53 51° NW
Nadezhda 3 Rocket 4.5 21:22:54 10° NNW 21:28:53 55° W 21:29:55 49° SW
NOSS 3-1 (C) 4.0 21:26:57 10° NW 21:34:14 71° SW 21:34:41 70° SSW
Terra 4.1 21:42:41 17° N 21:42:41 17° N 21:43:47 10° N
Cosmos 2154 Rocket 4.3 21:43:13 63° NW 21:43:13 63° NW 21:49:05 10° N
Cosmos 2237 Rocket 3.6 21:57:44 10° NW 22:01:41 34° WNW 22:01:41 34° WNW
Cosmos 2219 Rocket 4.4 22:19:53 10° WNW 22:23:05 18° W 22:23:05 18° W
SL-16 R/B 4.1 22:28:58 10° NW 22:31:31 26° NW 22:31:31 26° NW
H-2A R/B 4.3 22:38:45 23° NW 22:38:45 23° NW 22:40:51 10° NNW
ATLAS 2AS CENTAUR R/B 4.0 23:02:32 10° NW 23:07:36 42° NW 23:07:36 42° NW
